Grinnell, IA

5:28 AM CDT on May 26, 2018 (GMT -0500)
Grinnell Regional

Weather History for KGGI - January, 2013

Change the Weather History Date:

Wednesday, January 23, 2013

  Actual Average (KTNU) Record (KTNU)
Temperature  
Mean Temperature 18 °F -  
Max Temperature 30 °F 34 °F 54 °F (1976)
Min Temperature 6 °F 13 °F -7 °F (2014)
Degree Days  
Heating Degree Days 47    
Moisture  
Dew Point 8 °F    
Average Humidity 67    
Maximum Humidity 78    
Minimum Humidity 58    
Precipitation  
Precipitation 0.00 in - - ()
Sea Level Pressure  
Sea Level Pressure 30.25 in    
Wind  
Wind Speed 11 mph (West)    
Max Wind Speed 24 mph    
Max Gust Speed 33 mph    
Visibility 10 miles    
Events      
Averages and records for this station are not official NWS values.
T = Trace of Precipitation, MM = Missing Value Source: NWS Daily Summary

Daily Weather History Graph

Daily Weather History Graph

Search for Another Location

Airport or City:

Astronomy

Jan. 23, 2013 Rise Set
Actual Time 7:30 AM CST 5:15 PM CST
Civil Twilight 7:00 AM CST 5:45 PM CST
Nautical Twilight 6:26 AM CST 6:19 PM CST
Astronomical Twilight 5:53 AM CST 6:52 PM CST
Moon 2:25 PM CST (1/23) 4:43 AM CST (1/23)
Length of Visible Light 10h 44m
Length of Day
9h 44m
Waxing Gibbous, 89% of the Moon is Illuminated
Jan 23
Waxing Gibbous
Jan 26
Full
Feb 3
Last Quarter
Feb 10
New
Feb 17
First Quarter

Hourly Weather History & Observations

Time (CST) Temp. Windchill Dew Point Humidity Pressure Visibility Wind Dir Wind Speed Gust Speed Precip Events Conditions
12:15 AM 14.0 °F 5.1 °F 5.2 °F 68% 30.28 in 10.0 mi SSE 5.8 mph - N/A   Overcast
12:35 AM 14.4 °F 4.3 °F 5.9 °F 69% 30.27 in 10.0 mi SSE 6.9 mph - N/A   Overcast
12:55 AM 14.7 °F 7.3 °F 6.6 °F 70% 30.27 in 10.0 mi South 4.6 mph - N/A   Overcast
1:15 AM 14.9 °F 6.1 °F 6.3 °F 69% 30.26 in 10.0 mi South 5.8 mph - N/A   Overcast
1:35 AM 15.1 °F 4.2 °F 6.8 °F 70% 30.25 in 10.0 mi South 8.1 mph - N/A   Overcast
1:55 AM 15.4 °F 3.8 °F 7.5 °F 71% 30.25 in 10.0 mi South 9.2 mph - N/A   Overcast
2:15 AM 15.8 °F 5.1 °F 7.2 °F 69% 30.25 in 10.0 mi South 8.1 mph - N/A   Overcast
2:35 AM 15.8 °F 5.1 °F 6.8 °F 68% 30.25 in 10.0 mi South 8.1 mph - N/A   Overcast
2:55 AM 16.2 °F 6.5 °F 6.8 °F 67% 30.25 in 10.0 mi South 6.9 mph - N/A   Overcast
3:15 AM 16.2 °F 5.5 °F 7.0 °F 67% 30.23 in 10.0 mi South 8.1 mph - N/A   Overcast
3:35 AM 16.3 °F 5.7 °F 7.5 °F 68% 30.23 in 10.0 mi South 8.1 mph - N/A   Overcast
3:55 AM 16.3 °F 4.9 °F 7.7 °F 69% 30.22 in 10.0 mi South 9.2 mph - N/A   Overcast
4:15 AM 16.5 °F 4.3 °F 7.3 °F 67% 30.21 in 10.0 mi South 10.4 mph - N/A   Overcast
4:35 AM 16.7 °F 4.5 °F 7.9 °F 68% 30.21 in 10.0 mi SSW 10.4 mph - N/A   Overcast
4:55 AM 16.7 °F 3.8 °F 7.7 °F 68% 30.21 in 10.0 mi SSW 11.5 mph - N/A   Overcast
5:15 AM 16.7 °F 3.2 °F 7.9 °F 68% 30.21 in 10.0 mi SSW 12.7 mph - N/A   Overcast
5:35 AM 16.7 °F 3.2 °F 7.7 °F 68% 30.19 in 10.0 mi South 12.7 mph - N/A   Overcast
5:55 AM 16.5 °F 4.3 °F 8.4 °F 70% 30.18 in 10.0 mi South 10.4 mph - N/A   Overcast
6:15 AM 16.2 °F 4.7 °F 7.9 °F 70% 30.18 in 10.0 mi South 9.2 mph - N/A   Mostly Cloudy
6:35 AM 16.0 °F 4.4 °F 8.2 °F 72% 30.19 in 10.0 mi South 9.2 mph - N/A   Mostly Cloudy
6:55 AM 14.9 °F 4.0 °F 7.5 °F 73% 30.18 in 10.0 mi South 8.1 mph - N/A   Overcast
7:15 AM 14.5 °F 4.6 °F 7.5 °F 74% 30.18 in 10.0 mi South 6.9 mph - N/A   Mostly Cloudy
7:35 AM 12.9 °F 3.8 °F 6.6 °F 76% 30.18 in 10.0 mi South 5.8 mph - N/A   Scattered Clouds
7:55 AM 12.2 °F 2.9 °F 6.4 °F 78% 30.18 in 10.0 mi South 5.8 mph - N/A   Clear
8:15 AM 13.3 °F 3.0 °F 7.0 °F 76% 30.17 in 10.0 mi South 6.9 mph - N/A   Clear
8:35 AM 14.4 °F 4.3 °F 7.7 °F 75% 30.18 in 10.0 mi South 6.9 mph - N/A   Clear
8:55 AM 14.9 °F 4.0 °F 7.7 °F 73% 30.17 in 10.0 mi SSW 8.1 mph - N/A   Clear
9:15 AM 16.3 °F 5.7 °F 7.9 °F 69% 30.18 in 10.0 mi SW 8.1 mph - N/A   Clear
9:35 AM 17.4 °F 5.4 °F 9.3 °F 71% 30.17 in 10.0 mi SW 10.4 mph - N/A   Clear
9:55 AM 18.5 °F 6.1 °F 10.2 °F 70% 30.18 in 10.0 mi WSW 11.5 mph - N/A   Clear
10:15 AM 20.3 °F 9.0 °F 11.5 °F 69% 30.18 in 10.0 mi WSW 10.4 mph - N/A   Clear
10:35 AM 21.4 °F 9.1 °F 11.8 °F 67% 30.18 in 10.0 mi WSW 12.7 mph - N/A   Clear
10:55 AM 22.6 °F 9.6 °F 12.9 °F 66% 30.18 in 10.0 mi West 15.0 mph - N/A   Clear
11:15 AM 23.0 °F 8.7 °F 13.6 °F 67% 30.18 in 10.0 mi West 18.4 mph - N/A   Clear
11:35 AM 23.2 °F 9.8 °F 14.0 °F 68% 30.19 in 10.0 mi WNW 16.1 mph - N/A   Clear
11:55 AM 23.0 °F 10.1 °F 14.5 °F 70% 30.18 in 10.0 mi WNW 15.0 mph 18.4 mph N/A   Clear
12:15 PM 24.6 °F 11.3 °F 15.4 °F 68% 30.18 in 10.0 mi WNW 17.3 mph - N/A   Clear
12:35 PM 25.5 °F 12.4 °F 16.2 °F 68% 30.18 in 10.0 mi WNW 17.3 mph 20.7 mph N/A   Clear
12:55 PM 26.6 °F 13.4 °F 17.4 °F 68% 30.18 in 10.0 mi WNW 18.4 mph - N/A   Clear
1:15 PM 27.5 °F 15.0 °F 17.8 °F 67% 30.17 in 10.0 mi WNW 17.3 mph 20.7 mph N/A   Clear
1:35 PM 27.9 °F 15.9 °F 17.8 °F 66% 30.16 in 10.0 mi WNW 16.1 mph - N/A   Clear
1:55 PM 29.3 °F 17.0 °F 18.3 °F 64% 30.16 in 10.0 mi WNW 18.4 mph 24.2 mph N/A   Clear
2:15 PM 30.0 °F 18.3 °F 18.7 °F 63% 30.16 in 10.0 mi WNW 17.3 mph 23.0 mph N/A   Clear
2:35 PM 30.0 °F 17.2 °F 18.9 °F 63% 30.17 in 10.0 mi WNW 20.7 mph 26.5 mph N/A   Scattered Clouds
2:55 PM 29.1 °F 16.7 °F 17.2 °F 61% 30.19 in 10.0 mi NW 18.4 mph 25.3 mph N/A   Scattered Clouds
3:15 PM 28.4 °F 15.4 °F 16.5 °F 61% 30.20 in 10.0 mi NW 19.6 mph 24.2 mph N/A   Scattered Clouds
3:35 PM 27.7 °F 13.8 °F 16.0 °F 62% 30.21 in 10.0 mi NW 21.9 mph 28.8 mph N/A   Scattered Clouds
3:55 PM 27.5 °F 13.9 °F 15.3 °F 60% 30.22 in 10.0 mi NW 20.7 mph 25.3 mph N/A   Clear
4:15 PM 27.1 °F 14.9 °F 15.1 °F 60% 30.22 in 10.0 mi NW 16.1 mph 26.5 mph N/A   Clear
4:35 PM 26.2 °F 13.4 °F 14.7 °F 62% 30.23 in 10.0 mi NW 17.3 mph 26.5 mph N/A   Clear
4:55 PM 24.8 °F 10.0 °F 12.9 °F 61% 30.23 in 10.0 mi NW 21.9 mph 28.8 mph N/A   Clear
5:15 PM 23.4 °F 8.4 °F 11.8 °F 61% 30.25 in 10.0 mi NW 20.7 mph 31.1 mph N/A   Clear
5:35 PM 22.1 °F 8.0 °F 11.8 °F 65% 30.26 in 10.0 mi NW 17.3 mph 23.0 mph N/A   Clear
5:55 PM 21.0 °F 6.2 °F 10.0 °F 63% 30.28 in 10.0 mi NW 18.4 mph 25.3 mph N/A   Clear
6:15 PM 20.1 °F 4.2 °F 9.0 °F 62% 30.29 in 10.0 mi NW 20.7 mph 29.9 mph N/A   Clear
6:35 PM 19.2 °F 3.4 °F 8.6 °F 63% 30.30 in 10.0 mi NW 19.6 mph 33.4 mph N/A   Clear
6:55 PM 17.6 °F 3.2 °F 7.5 °F 65% 30.32 in 10.0 mi NW 15.0 mph 24.2 mph N/A   Clear
7:15 PM 15.6 °F -2.2 °F 3.2 °F 58% 30.33 in 10.0 mi NW 21.9 mph 28.8 mph N/A   Clear
7:35 PM 14.2 °F -2.7 °F 3.4 °F 62% 30.34 in 10.0 mi NW 18.4 mph - N/A   Clear
7:55 PM 13.3 °F -6.1 °F 0.9 °F 58% 30.35 in 10.0 mi NNW 24.2 mph 33.4 mph N/A   Clear
8:15 PM 11.8 °F -8.0 °F 0.5 °F 60% 30.36 in 10.0 mi NNW 24.2 mph 31.1 mph N/A   Clear
8:35 PM 10.9 °F -7.9 °F 0.1 °F 62% 30.38 in 10.0 mi NNW 20.7 mph 29.9 mph N/A   Clear
8:55 PM 10.2 °F -6.9 °F 0.5 °F 65% 30.39 in 10.0 mi NNW 16.1 mph 25.3 mph N/A   Clear
9:15 PM 9.9 °F -8.4 °F 0.5 °F 66% 30.39 in 10.0 mi NNW 18.4 mph 25.3 mph N/A   Clear
9:35 PM 9.5 °F -9.8 °F 0.7 °F 67% 30.41 in 10.0 mi NNW 20.7 mph 24.2 mph N/A   Clear
9:55 PM 9.0 °F -9.0 °F 0.7 °F 69% 30.42 in 10.0 mi North 17.3 mph 24.2 mph N/A   Clear
10:15 PM 8.4 °F -8.6 °F -0.8 °F 66% 30.43 in 10.0 mi NNW 15.0 mph 21.9 mph N/A   Clear
10:35 PM 7.7 °F -10.7 °F -2.0 °F 65% 30.43 in 10.0 mi North 17.3 mph 24.2 mph N/A   Clear
10:55 PM 7.3 °F -11.1 °F -2.2 °F 65% 30.45 in 10.0 mi NNW 17.3 mph 20.7 mph N/A   Clear
11:15 PM 7.0 °F -9.8 °F -2.6 °F 65% 30.46 in 10.0 mi North 13.8 mph 19.6 mph N/A   Clear
11:35 PM 6.8 °F -10.7 °F -3.1 °F 64% 30.48 in 10.0 mi North 15.0 mph 20.7 mph N/A   Clear
11:55 PM 6.8 °F -10.7 °F -3.1 °F 64% 30.49 in 10.0 mi NNW 15.0 mph 20.7 mph N/A   Clear